Waarnemingen

Advertentie
Mijn weer
Nancy/Ochey, Frankrijk (7181): temperatuur & dauwpunt: 18.05.2017 04:00:00 - 24.05.2017 04:00:00 (CEST)Nancy/Ochey, Frankrijk (7181): temperatuur 5cm: 18.05.2017 04:00:00 - 24.05.2017 04:00:00 (CEST)Nancy/Ochey, Frankrijk (7181): temperatuur -20cm & temperatuur -100cm: 18.05.2017 04:00:00 - 24.05.2017 04:00:00 (CEST)Nancy/Ochey, Frankrijk (7181): windsnelheid & windstoten: 18.05.2017 04:00:00 - 24.05.2017 04:00:00 (CEST)Nancy/Ochey, Frankrijk (7181): windrichting: 18.05.2017 04:00:00 - 24.05.2017 04:00:00 (CEST)Nancy/Ochey, Frankrijk (7181): luchtdruk: 18.05.2017 04:00:00 - 24.05.2017 04:00:00 (CEST)Nancy/Ochey, Frankrijk (7181): zicht: 18.05.2017 04:00:00 - 24.05.2017 04:00:00 (CEST)Nancy/Ochey, Frankrijk (7181): neerslag: 18.05.2017 04:00:00 - 24.05.2017 04:00:00 (CEST)
Datum & Tijd tt [°C] td [°C] tt 5cm [°C] tt -20cm [°C] tt -100cm [°C] ff [km/u] ff [kn] fx [km/u] fx [kn] dd ppp [hPa] vv [km] rr [mm]
24.05.2017 04:00:00 11,4 10,0 5,5 16,5 12,4 7 4 10 5 N 1024,7 34 0,0
24.05.2017 03:00:00 12,1 10,3 6,7 16,5 12,5 0 0 7 4 N 1024,1 19 0,0
24.05.2017 02:00:00 13,2 10,9 7,6 16,5 12,4 6 3 9 5 N 1024,0 37 0,0
24.05.2017 01:00:00 13,4 10,9 9,0 16,5 12,4 4 2 14 8 NNW 1023,9 38 0,0
24.05.2017 00:00:00 14,8 11,2 10,5 16,5 12,4 9 5 17 9 WNW 1023,4 47 0,0
23.05.2017 23:00:00 14,9 10,7 12,5 16,5 12,4 9 5 15 8 WNW 1023,2 60 0,0
23.05.2017 22:00:00 16,0 11,0 13,2 16,4 12,4 7 4 19 10 WNW 1022,5 60 0,0
23.05.2017 21:00:00 18,7 11,5 17,3 16,4 12,4 14 7 31 17 NW 1021,5 55 0,0
23.05.2017 20:00:00 21,1 11,1 22,4 16,3 12,4 20 11 33 18 WNW 1020,7 45 0,0
23.05.2017 19:00:00 22,2 12,4 24,0 16,2 12,4 21 12 33 18 NW 1020,2 53 0,0
23.05.2017 18:00:00 23,0 11,7 25,9 16,1 12,4 20 11 41 22 WNW 1019,8 60 0,0
23.05.2017 17:00:00 23,6 12,9 25,9 15,9 12,4 23 12 38 20 WNW 1019,5 60 0,0
23.05.2017 16:00:00 24,0 12,6 25,7 15,7 12,3 21 11 39 21 WNW 1019,0 60 0,0
23.05.2017 15:00:00 25,2 12,8 26,1 15,6 12,4 22 12 39 21 W 1018,6 46 0,0
23.05.2017 14:00:00 24,0 12,0 27,4 15,5 12,4 17 9 38 20 W 1019,0 60 0,0
23.05.2017 13:00:00 24,4 11,7 28,3 15,4 12,3 15 8 28 15 W 1019,0 60 0,0
23.05.2017 12:00:00 23,9 11,6 28,2 15,4 12,3 15 8 24 13 W 1019,0 60 0,0
23.05.2017 11:00:00 22,9 13,1 27,1 15,4 12,3 10 5 19 11 WNW 1018,7 60 0,0
23.05.2017 10:00:00 21,0 13,2 24,5 15,4 12,3 6 4 14 7 WZW 1018,9 60 0,0
23.05.2017 09:00:00 19,1 12,8 20,6 15,5 12,3 8 5 15 8 ZW 1018,6 60 0,0
23.05.2017 08:00:00 17,5 12,0 16,5 15,5 12,4 10 6 15 8 ZW 1018,5 59 0,0
23.05.2017 07:00:00 15,0 11,4 10,7 15,6 12,3 7 4 11 6 ZZW 1018,3 46 0,0
23.05.2017 06:00:00 13,6 10,2 11,4 15,6 12,4 7 4 11 6 ZZW 1017,9 60 0,0
23.05.2017 05:00:00 13,9 10,5 12,2 15,6 12,4 8 4 14 8 ZW 1017,3 60 0,0
23.05.2017 04:00:00 14,6 10,6 12,9 15,6 12,3 10 6 12 7 ZZW 1017,0 19 0,0
23.05.2017 03:00:00 14,7 11,1 13,2 15,6 12,4 9 5 13 7 ZZW 1017,0 60 0,0
23.05.2017 02:00:00 16,0 11,2 14,1 15,5 12,3 5 3 13 7 ZW 1016,8 60 0,0
23.05.2017 01:00:00 17,1 11,1 12,9 15,5 12,3 7 4 16 9 ZZW 1016,8 60 0,0
23.05.2017 00:00:00 16,4 11,1 12,3 15,4 12,3 7 4 9 5 ZZO 1016,5 60 0,0
22.05.2017 23:00:00 17,8 11,1 13,0 15,3 12,3 6 3 8 4 Z 1016,3 60 0,0
22.05.2017 22:00:00 19,6 10,8 14,1 15,3 12,3 2 1 5 3 ZZW 1015,8 60 0,0
22.05.2017 21:00:00 21,0 10,8 16,9 15,1 12,3 3 2 8 4 NNO 1015,1 60 0,0
22.05.2017 20:00:00 22,8 10,2 22,7 15,0 12,3 5 3 12 6 N 1014,7 60 0,0
22.05.2017 19:00:00 25,0 10,1 27,4 14,8 12,3 5 3 14 7 ONO 1014,6 19 0,0
22.05.2017 18:00:00 25,2 9,9 29,5 14,6 12,3 4 2 20 11 N 1014,7 56 0,0
22.05.2017 17:00:00 23,9 9,5 29,5 14,5 12,3 5 3 19 10 ZZW 1015,1 18 0,0
22.05.2017 16:00:00 24,0 9,2 29,3 14,4 12,3 8 4 20 11 Z 1015,5 49 0,0
22.05.2017 15:00:00 23,5 8,7 28,5 14,3 12,3 8 5 22 12 ZZO 1015,9 51 0,0
22.05.2017 14:00:00 22,5 8,2 27,5 14,2 12,3 10 5 23 12 ZO 1016,5 60 0,0
22.05.2017 13:00:00 21,4 9,9 26,2 14,2 12,3 10 5 23 13 O 1016,9 60 0,0
22.05.2017 12:00:00 20,5 9,7 25,0 14,3 12,3 16 8 24 13 O 1017,3 54 0,0
22.05.2017 11:00:00 19,9 10,0 24,1 14,3 12,3 10 6 18 10 O 1017,6 34 0,0
22.05.2017 10:00:00 18,7 9,5 20,2 14,4 12,3 7 4 14 8 ONO 1018,2 60 0,0
22.05.2017 09:00:00 16,1 8,3 18,8 14,4 12,3 5 3 10 6 ONO 1018,6 56 0,0
22.05.2017 08:00:00 15,2 8,7 13,9 14,5 12,3 0 0 5 3 N 1018,6 57 0,0
22.05.2017 07:00:00 11,2 7,9 3,4 14,6 12,3 0 0 5 3 N 1019,2 59 0,0
22.05.2017 06:00:00 8,7 6,5 2,7 14,6 12,3 0 0 6 3 N 1019,7 60 0,0
22.05.2017 05:00:00 9,0 5,6 3,6 14,6 12,3 2 1 10 5 WNW 1019,7 60 0,0
22.05.2017 04:00:00 11,1 6,4 5,1 14,7 12,3 3 2 11 6 O 1019,6 60 0,0
22.05.2017 03:00:00 11,8 6,7 6,1 14,6 12,3 0 0 5 3 N 1020,0 60 0,0
22.05.2017 02:00:00 12,6 6,6 8,7 14,6 12,3 2 1 11 6 ONO 1020,2 60 0,0
22.05.2017 01:00:00 13,3 6,6 11,1 14,6 12,3 8 4 18 10 O 1020,6 60 0,0
22.05.2017 00:00:00 14,3 6,6 12,9 14,6 12,3 11 6 19 10 O 1020,8 60 0,0
21.05.2017 23:00:00 14,4 6,5 12,9 14,5 12,3 8 4 13 7 O 1021,1 60 0,0
21.05.2017 22:00:00 15,9 5,8 14,1 14,4 12,3 7 4 13 7 O 1021,0 60 0,0
21.05.2017 21:00:00 17,4 5,7 16,3 14,4 12,3 9 5 19 10 ONO 1020,9 60 0,0
21.05.2017 20:00:00 19,2 4,9 20,0 14,2 12,3 10 6 25 14 ONO 1021,1 58 0,0
21.05.2017 19:00:00 20,0 5,6 22,8 14,1 12,3 13 7 21 11 ONO 1021,3 35 0,0
21.05.2017 18:00:00 20,4 5,2 24,3 13,9 12,3 11 6 26 14 O 1021,9 60 0,0
21.05.2017 17:00:00 20,2 3,8 24,4 13,9 12,3 11 6 26 14 O 1022,5 60 0,0
21.05.2017 16:00:00 20,2 6,2 24,6 13,8 12,3 12 6 28 15 ONO 1023,1 20 0,0
21.05.2017 15:00:00 19,1 4,4 20,5 13,7 12,3 10 5 26 14 NO 1023,7 19 0,0
21.05.2017 14:00:00 19,3 6,4 20,5 13,7 12,3 12 6 27 14 O 1024,4 60 0,0
21.05.2017 13:00:00 18,2 7,3 22,5 13,7 12,3 14 8 28 15 O 1025,2 60 0,0
21.05.2017 12:00:00 17,1 6,3 20,1 13,8 12,3 16 9 29 16 O 1026,1 60 0,0
21.05.2017 11:00:00 15,6 6,8 18,5 13,8 12,3 17 9 26 14 ONO 1026,4 60 0,0
21.05.2017 10:00:00 14,4 7,2 17,7 13,9 12,3 10 5 18 10 O 1027,0 48 0,0
21.05.2017 09:00:00 12,8 7,2 15,4 13,9 12,3 7 4 11 6 O 1027,3 37 0,0
21.05.2017 08:00:00 11,2 7,7 8,0 14,0 12,3 3 1 4 2 ONO 1027,0 55 0,0
21.05.2017 07:00:00 7,4 5,5 1,3 14,1 12,3 0 0 3 2 N 1027,5 52 0,0
21.05.2017 06:00:00 5,3 4,7 1,1 14,2 12,3 0 0 9 5 N 1027,6 39 0,0
21.05.2017 05:00:00 6,2 5,6 2,9 14,3 12,3 8 4 10 5 ZZO 1027,6 24 0,0
21.05.2017 04:00:00 7,0 5,6 3,4 14,3 12,3 6 4 9 5 OZO 1027,5 60 0,0
21.05.2017 03:00:00 6,5 5,8 0,8 14,4 12,3 3 2 7 4 ZO 1027,6 60 0,0
21.05.2017 02:00:00 6,8 5,4 3,0 14,4 12,3 2 1 9 5 ZO 1027,7 60 0,0
21.05.2017 01:00:00 8,9 6,7 5,0 14,4 12,3 4 2 8 5 ZZO 1027,4 60 0,0
21.05.2017 00:00:00 9,1 6,9 5,8 14,4 12,3 8 4 12 6 ZO 1027,0 60 0,0
20.05.2017 23:00:00 10,0 7,4 6,4 14,4 12,3 9 5 11 6 ZZO 1026,8 60 0,0
20.05.2017 22:00:00 11,6 7,3 8,0 14,4 12,3 8 4 10 5 ZO 1026,2 60 0,0
20.05.2017 21:00:00 12,9 7,8 12,2 14,3 12,3 5 3 12 7 ZO 1025,6 60 0,0
20.05.2017 20:00:00 14,5 5,8 14,5 14,3 12,3 4 2 13 7 O 1025,0 60 0,0
20.05.2017 19:00:00 14,5 5,6 15,4 14,3 12,3 4 2 12 7 O 1024,7 60 0,0
20.05.2017 18:00:00 15,2 5,9 15,1 14,2 12,3 8 4 14 7 ZZW 1024,3 60 0,0
20.05.2017 17:00:00 14,1 6,0 15,1 14,2 12,3 6 4 15 8 Z 1024,3 60 0,0
20.05.2017 16:00:00 14,0 6,1 15,3 14,2 12,2 8 5 21 11 ZW 1023,9 59 0,0
20.05.2017 15:00:00 14,7 5,7 16,7 14,2 12,3 9 5 25 14 ZW 1023,5 60 0,0
20.05.2017 14:00:00 14,2 4,7 16,4 14,2 12,2 16 9 29 15 ZW 1023,2 58 0,0
20.05.2017 13:00:00 12,8 7,0 12,4 14,3 12,2 14 7 24 13 ZW 1023,4 43 0,0
20.05.2017 12:00:00 11,5 6,6 11,4 14,3 12,2 13 7 23 13 ZZW 1023,2 60 0,0
20.05.2017 11:00:00 10,7 6,6 11,3 14,4 12,2 11 6 22 12 WZW 1022,9 60 0,0
20.05.2017 10:00:00 10,8 6,2 11,6 14,5 12,2 14 8 28 15 ZW 1022,2 58 0,0
20.05.2017 09:00:00 10,1 7,9 9,4 14,5 12,2 15 8 29 16 ZW 1021,7 59 0,0
20.05.2017 08:00:00 8,5 7,1 8,0 14,6 12,2 13 7 20 11 ZZW 1021,3 60 0,0
20.05.2017 07:00:00 7,9 6,8 5,1 14,7 12,2 15 8 20 11 ZZW 1020,3 60 0,0
20.05.2017 06:00:00 7,0 6,4 5,0 14,8 12,2 11 6 20 11 ZZW 1020,0 10 0,0
20.05.2017 05:00:00 7,9 7,1 6,8 14,9 12,2 14 8 21 11 ZZW 1019,5 56 0,0
20.05.2017 04:00:00 8,1 7,0 7,4 14,9 12,2 10 6 16 9 ZZW 1019,4 60 0,0
20.05.2017 03:00:00 8,5 6,8 7,8 15,0 12,2 13 7 20 11 ZZW 1019,2 60 0,0
20.05.2017 02:00:00 8,4 6,9 6,2 15,1 12,2 7 4 16 9 ZZO 1019,3 60 0,0
20.05.2017 01:00:00 8,2 6,5 6,8 15,1 12,2 11 6 19 10 Z 1019,3 60 0,0
20.05.2017 00:00:00 8,7 6,7 7,5 15,1 12,1 14 7 21 11 Z 1019,2 60 0,0
19.05.2017 23:00:00 8,4 7,0 6,7 15,1 12,1 14 7 27 15 ZW 1019,0 60 0,0
19.05.2017 22:00:00 9,8 7,4 8,6 15,2 12,1 18 10 29 15 Z 1018,0 60 0,0
19.05.2017 21:00:00 10,4 7,5 9,5 15,2 12,1 21 12 28 15 Z 1017,4 60 0,0
19.05.2017 20:00:00 11,7 6,8 10,9 15,2 12,1 20 11 31 17 Z 1016,9 54 0,0
19.05.2017 19:00:00 12,4 7,9 12,9 15,2 12,0 24 13 34 18 Z 1016,4 59 0,0
19.05.2017 18:00:00 13,8 4,9 15,7 15,2 12,0 18 10 37 20 ZZW 1015,9 55 0,0
19.05.2017 17:00:00 13,6 5,5 15,1 15,3 12,0 13 7 28 15 ZW 1015,8 60 0,0
19.05.2017 16:00:00 12,9 6,9 12,9 15,3 12,0 17 9 34 18 ZW 1015,9 60 0,0
19.05.2017 15:00:00 11,5 7,4 12,8 15,4 12,0 18 10 29 16 WZW 1015,8 55 0,0
19.05.2017 14:00:00 11,6 8,1 10,8 15,4 12,0 18 10 29 16 WZW 1015,7 59 0,0
19.05.2017 13:00:00 10,4 8,7 9,8 15,5 12,0 18 10 34 19 W 1015,7 38 0,6
19.05.2017 12:00:00 9,6 8,7 9,2 15,6 12,0 16 9 28 15 WZW 1015,7 20 1,6
19.05.2017 11:00:00 9,5 8,9 9,2 15,7 12,0 11 6 24 13 W 1015,3 6 1,6
19.05.2017 10:00:00 9,5 8,7 9,0 15,7 12,0 9 5 21 12 W 1014,5 2,4 0,2
19.05.2017 09:00:00 9,4 8,3 8,9 15,8 12,0 11 6 21 11 WZW 1014,1 51 0,4
19.05.2017 08:00:00 9,2 8,3 8,7 15,9 11,9 14 8 23 12 WZW 1013,9 15 0,8
19.05.2017 07:00:00 9,6 8,2 8,8 16,0 11,9 11 6 27 15 WZW 1013,2 45 0,6
19.05.2017 06:00:00 10,2 8,3 9,6 16,0 11,9 19 10 32 17 W 1012,5 60 0,2
19.05.2017 05:00:00 10,7 8,5 10,4 16,1 11,9 16 8 31 17 W 1012,3 60 0,0
19.05.2017 04:00:00 11,2 8,9 10,9 16,1 11,9 16 9 39 21 W 1012,5 60 0,0
19.05.2017 03:00:00 11,6 9,8 11,2 16,1 11,9 22 12 40 21 W 1012,0 50 0,0
19.05.2017 02:00:00 11,8 11,0 11,6 16,2 11,9 26 14 41 22 WZW 1012,0 17 0,0
19.05.2017 01:00:00 14,9 13,3 13,6 16,2 11,8 24 13 37 20 WZW 1010,8 60 0,0
19.05.2017 00:00:00 16,0 12,0 13,8 16,1 11,9 15 8 39 21 Z 1009,9 60 0,0
18.05.2017 23:00:00 16,8 12,1 14,2 16,1 11,8 23 13 59 32 OZO 1008,2 39 0,6
18.05.2017 22:00:00 19,0 13,2 17,1 16,1 11,8 10 5 19 10 ZO 1008,1 59 0,0
18.05.2017 21:00:00 20,6 13,8 19,6 16,1 11,8 6 4 11 6 ZO 1008,1 60 0,0
18.05.2017 20:00:00 22,1 13,7 22,6 16,0 11,8 7 4 22 12 OZO 1008,2 57 0,0
18.05.2017 19:00:00 22,2 12,4 23,4 16,0 11,8 13 7 29 16 ZZO 1008,5 60 0,0
18.05.2017 18:00:00 22,6 12,8 24,1 15,9 11,8 15 8 29 15 ZO 1009,4 60 0,0
18.05.2017 17:00:00 21,9 13,5 23,9 15,9 11,8 14 8 29 16 ZZO 1010,0 59 0,0
18.05.2017 16:00:00 21,0 13,4 22,9 15,9 11,8 14 8 27 14 ZO 1011,1 51 0,0
18.05.2017 15:00:00 20,8 14,2 22,7 15,9 11,7 12 6 21 12 ZZO 1011,7 60 0,0
18.05.2017 14:00:00 19,7 13,8 21,0 15,9 11,7 13 7 18 10 Z 1012,8 57 0,0
18.05.2017 13:00:00 19,2 14,2 21,3 15,9 11,7 11 6 19 10 ZZW 1013,2 57 0,0
18.05.2017 12:00:00 18,7 15,0 18,7 15,9 11,7 11 6 22 12 Z 1013,5 58 0,0
18.05.2017 11:00:00 17,5 15,8 16,9 15,9 11,7 13 7 22 12 Z 1014,5 47 0,2
18.05.2017 10:00:00 17,3 15,6 16,8 15,9 11,7 12 6 23 13 Z 1014,5 26 0,2
18.05.2017 09:00:00 17,6 15,8 16,5 16,0 11,7 8 4 16 8 Z 1014,0 58 0,0
18.05.2017 08:00:00 16,4 15,4 15,4 16,0 11,7 12 7 16 9 Z 1014,3 41 0,4
18.05.2017 07:00:00 16,8 14,8 15,9 16,1 11,7 11 6 18 10 ZZW 1013,9 59 0,0
18.05.2017 06:00:00 16,3 14,5 15,5 16,1 11,7 10 6 15 8 ZZW 1013,6 54 0,0
18.05.2017 05:00:00 16,4 14,4 13,8 16,1 11,6 12 7 20 11 ZZW 1013,7 59 0,0
18.05.2017 04:00:00 15,7 13,2 13,6 16,1 11,6 6 3 24 13 WZW 1013,5 60 0,0

tt = temperatuur
td = dauwpunt
tt 5cm = temperatuur 5cm
tt -20cm = temperatuur -20cm
tt -100cm = temperatuur -100cm
ff = windsnelheid
fx = windstoten
dd = windrichting
ppp = luchtdruk
vv = zicht
rr = neerslag

Weerstations in de omgeving